When you browse on this site, cookies collect data to enhance your experience and personalize the content and advertising you see.
Visit our Privacy Policy to learn more. By continuing to use the site, you agree to this use of cookies and data.
  • In France
  • List of Countries
  • For 7 days
  • Water Temperature
  • Weather Map
  • Weather Widgets
  • user-avatar
    Login

    Hourly Weather Vidin

    Today, 16 September, Monday

    Time Temperature Precipitation Wind Pressure Humidity
    00:00 +19°C° 0 mm 1 mps 763 mmHg 49%
    01:00 +18°C° 0 mm 1 mps 763 mmHg 50%
    02:00 +18°C° 0 mm 1 mps 763 mmHg 54%
    03:00 +18°C° 0 mm 1 mps 762 mmHg 55%
    04:00 +16°C° 0 mm 1 mps 762 mmHg 57%
    05:00 +16°C° 0 mm 1 mps 762 mmHg 59%
    06:00 +19°C° 0 mm 1 mps 761 mmHg 54%
    07:00 +20°C° 0 mm 1 mps 761 mmHg 50%
    08:00 +22°C° 0 mm 1 mps 761 mmHg 43%
    09:00 +25°C° 0 mm 2 mps 761 mmHg 37%
    10:00 +28°C° 0 mm 3 mps 760 mmHg 31%
    11:00 +30°C° 0 mm 4 mps 760 mmHg 24%
    12:00 +33°C° 0 mm 4 mps 759 mmHg 22%
    13:00 +34°C° 0 mm 5 mps 759 mmHg 20%
    14:00 +35°C° 0 mm 5 mps 758 mmHg 18%
    15:00 +35°C° 0 mm 5 mps 758 mmHg 18%
    16:00 +34°C° 0 mm 6 mps 758 mmHg 18%
    17:00 +34°C° 0 mm 6 mps 757 mmHg 19%
    18:00 +30°C° 0 mm 5 mps 758 mmHg 23%
    19:00 +27°C° 0 mm 4 mps 758 mmHg 28%
    20:00 +25°C° 0 mm 4 mps 758 mmHg 32%
    21:00 +23°C° 0 mm 4 mps 758 mmHg 34%
    22:00 +22°C° 0 mm 3 mps 758 mmHg 37%
    23:00 +21°C° 0 mm 3 mps 758 mmHg 39%

    Tomorrow, 17 September, Tuesday

    Time Temperature Precipitation Wind Pressure Humidity
    00:00 +20°C° 0 mm 3 mps 758 mmHg 40%
    01:00 +20°C° 0 mm 3 mps 758 mmHg 41%
    02:00 +20°C° 0 mm 3 mps 758 mmHg 42%
    03:00 +19°C° 0 mm 3 mps 758 mmHg 43%
    04:00 +19°C° 0 mm 3 mps 758 mmHg 44%
    05:00 +19°C° 0 mm 2 mps 757 mmHg 45%
    06:00 +20°C° 0 mm 2 mps 758 mmHg 42%
    07:00 +23°C° 0 mm 2 mps 758 mmHg 39%
    08:00 +24°C° 0 mm 2 mps 758 mmHg 35%
    09:00 +27°C° 0 mm 2 mps 758 mmHg 32%
    10:00 +30°C° 0 mm 3 mps 758 mmHg 29%
    11:00 +33°C° 0 mm 3 mps 757 mmHg 25%
    12:00 +35°C° 0 mm 3 mps 757 mmHg 22%
    13:00 +36°C° 0 mm 3 mps 756 mmHg 19%
    14:00 +37°C° 0 mm 3 mps 756 mmHg 16%
    15:00 +37°C° 0 mm 4 mps 755 mmHg 16%
    16:00 +37°C° 0 mm 4 mps 755 mmHg 15%
    17:00 +36°C° 0 mm 4 mps 754 mmHg 14%
    18:00 +33°C° 0 mm 3 mps 755 mmHg 19%
    19:00 +29°C° 0 mm 3 mps 755 mmHg 24%
    20:00 +26°C° 0 mm 2 mps 755 mmHg 29%
    21:00 +25°C° 0 mm 2 mps 755 mmHg 32%
    22:00 +24°C° 0 mm 1 mps 755 mmHg 34%
    23:00 +23°C° 0 mm 1 mps 755 mmHg 37%

    Day after tomorrow, 18 September, Wednesday

    Time Temperature Precipitation Wind Pressure Humidity
    00:00 +22°C° 0 mm 1 mps 755 mmHg 39%
    01:00 +22°C° 0 mm 1 mps 755 mmHg 40%
    02:00 +21°C° 0 mm 1 mps 755 mmHg 42%
    03:00 +20°C° 0 mm 2 mps 755 mmHg 42%
    04:00 +20°C° 0 mm 2 mps 755 mmHg 43%
    05:00 +19°C° 0 mm 2 mps 756 mmHg 43%
    06:00 +21°C° 0 mm 4 mps 756 mmHg 43%
    07:00 +22°C° 0 mm 5 mps 757 mmHg 42%
    08:00 +23°C° 0 mm 7 mps 758 mmHg 42%
    09:00 +23°C° 0 mm 6 mps 758 mmHg 43%
    10:00 +22°C° 0 mm 6 mps 759 mmHg 44%
    11:00 +21°C° 0 mm 6 mps 760 mmHg 45%
    12:00 +21°C° 0 mm 7 mps 760 mmHg 41%
    13:00 +21°C° 0 mm 7 mps 761 mmHg 38%
    14:00 +22°C° 0 mm 7 mps 761 mmHg 35%
    15:00 +21°C° 0 mm 7 mps 761 mmHg 33%
    16:00 +21°C° 0 mm 7 mps 761 mmHg 31%
    17:00 +20°C° 0 mm 7 mps 761 mmHg 29%
    18:00 +18°C° 0 mm 7 mps 762 mmHg 33%
    19:00 +17°C° 0 mm 6 mps 762 mmHg 37%
    20:00 +15°C° 0 mm 6 mps 762 mmHg 41%
    21:00 +15°C° 0 mm 5 mps 763 mmHg 40%
    22:00 +15°C° 0 mm 5 mps 763 mmHg 39%
    23:00 +15°C° 0 mm 5 mps 763 mmHg 38%

    19 September, Thursday

    Time Temperature Precipitation Wind Pressure Humidity
    00:00 +14°C° 0 mm 4 mps 763 mmHg 40%
    01:00 +14°C° 0 mm 3 mps 763 mmHg 42%
    02:00 +13°C° 0 mm 3 mps 763 mmHg 44%
    03:00 +12°C° 0 mm 3 mps 763 mmHg 48%
    04:00 +12°C° 0 mm 2 mps 763 mmHg 52%
    05:00 +10°C° 0 mm 2 mps 763 mmHg 56%
    06:00 +11°C° 0 mm 3 mps 763 mmHg 52%
    07:00 +11°C° 0 mm 3 mps 763 mmHg 49%
    08:00 +12°C° 0 mm 3 mps 763 mmHg 45%
    09:00 +14°C° 0 mm 3 mps 763 mmHg 41%
    10:00 +17°C° 0 mm 3 mps 763 mmHg 37%
    11:00 +19°C° 0 mm 2 mps 763 mmHg 33%
    12:00 +20°C° 0 mm 2 mps 763 mmHg 30%
    13:00 +21°C° 0 mm 2 mps 763 mmHg 27%
    14:00 +23°C° 0 mm 2 mps 762 mmHg 25%
    15:00 +22°C° 0 mm 3 mps 762 mmHg 24%
    16:00 +22°C° 0 mm 3 mps 762 mmHg 22%
    17:00 +23°C° 0 mm 4 mps 762 mmHg 21%
    18:00 +21°C° 0 mm 4 mps 762 mmHg 27%
    19:00 +18°C° 0 mm 4 mps 762 mmHg 33%
    20:00 +15°C° 0 mm 5 mps 763 mmHg 39%
    21:00 +15°C° 0 mm 5 mps 763 mmHg 40%
    22:00 +14°C° 0 mm 5 mps 763 mmHg 41%
    23:00 +14°C° 0 mm 5 mps 763 mmHg 42%

    20 September, Friday

    Time Temperature Precipitation Wind Pressure Humidity
    00:00 +13°C° 0 mm 5 mps 763 mmHg 43%
    01:00 +13°C° 0 mm 5 mps 763 mmHg 45%
    02:00 +12°C° 0 mm 5 mps 764 mmHg 46%
    03:00 +12°C° 0 mm 5 mps 764 mmHg 47%
    04:00 +10°C° 0 mm 6 mps 764 mmHg 49%
    05:00 +10°C° 0 mm 6 mps 764 mmHg 50%
    06:00 +10°C° 0 mm 6 mps 764 mmHg 46%
    07:00 +11°C° 0 mm 6 mps 764 mmHg 43%
    08:00 +13°C° 0 mm 6 mps 764 mmHg 39%
    09:00 +15°C° 0 mm 6 mps 764 mmHg 33%
    10:00 +17°C° 0 mm 5 mps 764 mmHg 28%
    11:00 +20°C° 0 mm 5 mps 765 mmHg 23%
    12:00 +21°C° 0 mm 5 mps 764 mmHg 21%
    13:00 +22°C° 0 mm 5 mps 763 mmHg 20%
    14:00 +22°C° 0 mm 5 mps 763 mmHg 18%
    15:00 +22°C° 0 mm 5 mps 763 mmHg 19%
    16:00 +22°C° 0 mm 6 mps 763 mmHg 19%
    17:00 +22°C° 0 mm 6 mps 763 mmHg 20%
    18:00 +19°C° 0 mm 5 mps 764 mmHg 25%
    19:00 +17°C° 0 mm 4 mps 764 mmHg 31%
    20:00 +14°C° 0 mm 4 mps 765 mmHg 36%
    21:00 +13°C° 0 mm 3 mps 765 mmHg 39%
    22:00 +12°C° 0 mm 3 mps 766 mmHg 42%
    23:00 +12°C° 0 mm 2 mps 766 mmHg 45%

    21 September, Saturday

    Time Temperature Precipitation Wind Pressure Humidity
    00:00 +10°C° 0 mm 2 mps 766 mmHg 46%
    01:00 +10°C° 0 mm 1 mps 767 mmHg 48%
    02:00 +10°C° 0 mm 1 mps 767 mmHg 50%
    03:00 +9°C° 0 mm 1 mps 767 mmHg 52%
    04:00 +9°C° 0 mm 1 mps 767 mmHg 54%
    05:00 +8°C° 0 mm 1 mps 767 mmHg 56%
    06:00 +9°C° 0 mm 1 mps 767 mmHg 52%
    07:00 +10°C° 0 mm 1 mps 768 mmHg 48%
    08:00 +12°C° 0 mm 1 mps 768 mmHg 44%
    09:00 +14°C° 0 mm 1 mps 768 mmHg 39%
    10:00 +16°C° 0 mm 1 mps 768 mmHg 34%
    11:00 +19°C° 0 mm 1 mps 768 mmHg 28%
    12:00 +20°C° 0 mm 1 mps 767 mmHg 25%
    13:00 +22°C° 0 mm 1 mps 766 mmHg 22%
    14:00 +23°C° 0 mm 1 mps 766 mmHg 19%
    15:00 +23°C° 0 mm 1 mps 766 mmHg 18%
    16:00 +22°C° 0 mm 1 mps 765 mmHg 18%
    17:00 +22°C° 0 mm 1 mps 765 mmHg 17%
    18:00 +20°C° 0 mm 1 mps 766 mmHg 21%
    19:00 +18°C° 0 mm 1 mps 766 mmHg 24%
    20:00 +14°C° 0 mm 1 mps 766 mmHg 28%
    21:00 +13°C° 0 mm 1 mps 767 mmHg 29%
    22:00 +13°C° 0 mm 1 mps 767 mmHg 31%
    23:00 +12°C° 0 mm 1 mps 767 mmHg 33%
    Show more